Weather in Metsovo

Greece     39°46′10″N   21°10′57″E
temp.,
°C
wind,
m/s
gust,
m/s
humid.,
%
clouds,
%
prec.,
mm/h
press.,
hPa
HPBL,
m
10 august, wed
wed1000:00+16sw11465 0.0 101815
03:00+15nw11472 0.0 101713
06:00+14nnw11505 0.0 101712
09:00+20ne12373 0.0 1017435
12:00+24ne342648 0.0 10162899
15:00+26ene342099 0.0 10153560
18:00+26e232265 0.0 10133033
21:00+19w2242100 0.0 101525
11 august, thu
thu1100:00+17nnw114855 0.0 101612
03:00+16sse114614 0.0 101611
06:00+14se11505 0.0 101612
09:00+19e22515 0.0 1016520
12:00+25e223344 0.0 10151958
15:00+21nnw2348100 0.3 1015762
18:00+21sw234697 0.4 1015511
21:00+17ne2363100 0.4 101675
12 august, fri
fri1200:00+14ese117626 0.0 101729
03:00+13ese118044 0.1 101612
06:00+12ne118771 0.1 101611
09:00+17e22655 0.1 1015278
12:00+21e325456 1.5 10151060
15:00+16ene0183100 5.6 101570
18:00+17ene1272100 0.4 101423
21:00+12ene22948 4.9 101730
13 august, sat
sat1300:00+12nw11910 0.1 101714
03:00+12wsw21795 0.1 101513
06:00+12wsw117699 0.0 101412
09:00+17wnw11627 0.0 1014118
12:00+23ssw03344 0.0 10132119
15:00+24w233057 0.0 10122650
18:00+21wnw344798 0.1 10111114
21:00+16wsw226812 0.3 101329
14 august, sun
sun1400:00+14wsw227314 0.0 101325
03:00+13wsw21718 0.0 101220
06:00+13wsw21725 0.0 101120
09:00+18w115683 0.0 1010295
12:00+19s0257100 1.1 10101292
15:00+17w236796 2.8 1010238
18:00+20wsw345054 0.1 10091413
21:00+13e01834 0.6 101011